User: anonymous   Login
Location: Highridge
(54.0333°N, 114.1333°W)
Time: 15:30:38
(UTC+00:00)
Language:

TIGRISAT - Orbit

View from above orbital plane
View from above orbital plane
View from above satellite
View from above satellite

Ground track
Ground track

The orbit data is extracted from the following two-line orbital elements,

1 40043U 14033AK  25340.22909871  .00004838  00000-0  57367-3 0  9998
2 40043  97.7559 130.1167 0050031 349.0570  10.9551 14.84075680616996
Epoch (UTC): 06 December 2025 05:29:54
Eccentricity: 0.0050031
inclination: 97.7559°
perigee height: 581 km
apogee height: 651 km
right ascension of ascending node: 130.1167°
argument of perigee: 349.0570°
revolutions per day: 14.84075680
mean anomaly at epoch: 10.9551°
orbit number at epoch: 61699

The dashed part of the orbit path shows where the satellite is in the earth's shadow,  

DLR